Date,TemperatureHighF,TemperatureAvgF,TemperatureLowF,DewpointHighF,DewpointAvgF,DewpointLowF,HumidityHigh,HumidityAvg,HumidityLow,PressureMaxIn,PressureMinIn,WindSpeedMaxMPH,WindSpeedAvgMPH,GustSpeedMaxMPH,PrecipitationSumIn
2013-1-1,35,34,32,33,32,28,96,93,86,30.17,30.06,12,2,12,0.18
2013-1-2,32,28,24,28,24,21,91,84,77,30.27,30.14,12,3,12,0.00
2013-1-3,40,31,21,25,22,19,91,71,43,30.41,30.27,18,3,18,0.00
2013-1-4,39,32,27,27,25,22,84,75,60,30.44,30.37,17,4,17,0.00
2013-1-5,46,34,21,31,26,18,91,72,49,30.42,30.22,12,3,12,0.00
2013-1-6,43,37,28,34,29,21,77,72,69,30.40,30.09,22,7,22,0.00
2013-1-7,42,32,23,28,24,20,90,74,56,30.50,30.27,11,1,11,0.00
2013-1-8,54,38,24,36,29,21,88,72,47,30.38,30.26,17,2,17,0.00
2013-1-9,56,47,38,47,41,33,93,81,70,30.51,30.26,11,2,11,0.00
2013-1-10,55,46,40,51,42,35,93,86,72,30.51,30.08,12,3,12,0.30
2013-1-11,68,59,54,55,52,50,94,81,55,30.09,29.86,25,6,25,0.66
2013-1-12,65,62,54,63,60,52,96,94,88,30.03,29.83,15,3,15,0.08
2013-1-13,66,56,36,60,53,34,96,91,76,30.16,29.78,26,6,26,1.75
2013-1-14,36,30,27,34,26,22,92,84,78,30.46,30.16,16,6,16,0.00
2013-1-15,34,30,26,30,26,23,93,86,78,30.36,30.07,18,7,18,0.07
2013-1-16,34,32,32,31,31,30,94,93,91,30.15,30.00,7,0,7,0.11
2013-1-17,40,34,30,33,30,25,94,85,72,30.41,30.13,23,2,23,0.01
2013-1-18,42,32,24,27,23,18,81,69,50,30.56,30.34,12,3,12,0.00
2013-1-19,55,45,34,32,28,24,70,53,34,30.34,30.04,28,10,28,0.00
2013-1-20,46,39,27,32,20,9,73,48,26,30.24,30.04,23,5,23,0.00
2013-1-21,32,25,16,17,10,2,76,56,34,30.31,30.14,25,6,25,0.00
2013-1-22,22,16,12,4,0,-3,64,50,35,30.46,30.30,23,5,23,0.00
2013-1-23,36,24,13,18,11,3,77,57,41,30.43,30.13,14,3,14,0.00
2013-1-24,29,23,19,20,7,-1,69,50,33,30.59,30.17,28,7,28,0.00
2013-1-25,28,25,22,25,18,6,91,76,49,30.44,30.10,14,4,14,0.00
2013-1-26,38,29,23,25,22,19,93,77,52,30.45,30.23,13,3,13,0.02
2013-1-27,45,34,22,40,27,19,93,77,53,30.44,30.22,12,3,12,0.15
2013-1-28,56,51,42,52,46,40,93,85,72,30.22,30.09,24,7,24,0.17
2013-1-29,68,61,52,59,55,49,89,80,72,30.10,29.64,26,8,26,0.00
2013-1-30,70,54,33,60,50,26,95,84,68,29.67,29.33,39,10,39,0.86
2013-1-31,35,31,21,29,23,18,92,73,57,30.09,29.67,31,10,31,0.00
2013-2-1,21,15,8,18,6,-1,88,68,55,30.50,30.09,26,5,26,0.00
2013-2-2,34,27,16,31,23,11,91,84,76,30.40,30.06,17,4,17,0.06
2013-2-3,30,28,23,26,24,18,87,82,77,30.19,29.99,22,4,22,0.00
2013-2-4,48,34,16,41,28,13,92,79,53,30.17,29.87,26,4,26,0.10
2013-2-5,51,44,38,41,37,33,94,78,52,30.05,29.88,15,5,15,0.00
2013-2-6,46,37,27,34,31,24,92,80,64,30.26,30.05,12,2,12,0.00
2013-2-7,65,48,35,41,35,30,84,64,36,30.20,29.86,14,3,14,0.00
2013-2-8,50,39,34,46,34,28,93,82,74,30.34,29.83,23,7,23,0.08
2013-2-9,44,35,27,28,25,22,82,67,45,30.44,30.22,14,4,14,0.00
2013-2-10,59,46,34,49,34,23,92,66,39,30.22,29.84,28,6,28,0.10
2013-2-11,55,50,40,52,37,26,93,64,42,30.11,29.84,28,9,28,0.01
2013-2-12,51,40,30,31,27,24,82,61,36,30.18,29.91,12,2,12,0.00
2013-2-13,39,36,30,35,31,28,91,81,69,29.97,29.75,17,4,17,0.01
2013-2-14,56,42,30,39,34,28,93,73,44,30.00,29.89,23,6,23,0.00
2013-2-15,43,38,28,35,30,21,87,74,54,30.18,30.00,17,4,17,0.00
2013-2-16,35,27,20,24,16,8,90,65,38,30.18,30.08,21,5,21,0.00
2013-2-17,37,28,19,16,13,8,76,55,34,30.29,30.16,17,3,17,0.00
2013-2-18,61,44,26,38,27,15,70,52,36,30.24,29.82,35,8,35,0.07
2013-2-19,48,37,26,41,28,17,90,69,45,30.18,29.74,32,10,32,0.16
2013-2-20,33,26,20,18,15,13,74,62,49,30.33,30.18,17,4,17,0.00
2013-2-21,37,28,19,29,19,14,88,70,55,30.36,30.05,23,6,23,0.07
2013-2-22,57,44,32,46,39,29,94,84,66,30.06,29.90,24,4,24,0.20
2013-2-23,48,40,33,38,29,24,87,67,43,30.02,29.91,11,3,11,0.00
2013-2-24,46,35,25,28,25,21,84,67,44,30.16,29.97,12,2,12,0.00
2013-2-25,48,38,27,28,25,22,82,61,43,30.15,29.83,22,7,22,0.00
2013-2-26,54,45,40,50,39,25,91,80,53,29.83,29.38,25,7,25,0.46
2013-2-27,40,37,33,37,34,30,92,88,84,29.81,29.59,22,9,22,0.08
2013-2-28,36,34,32,33,31,29,93,88,86,30.01,29.79,17,6,17,0.02
2013-3-1,37,35,33,34,32,31,93,91,82,30.03,29.96,12,3,12,0.01
2013-3-2,33,29,27,31,25,23,92,84,78,30.13,30.02,15,6,15,0.01
2013-3-3,37,30,24,25,22,18,89,75,50,30.14,30.08,17,4,17,0.00
2013-3-4,46,34,19,27,22,16,90,64,37,30.20,29.98,15,3,15,0.00
2013-3-5,47,40,30,45,36,27,95,84,55,29.98,29.58,31,6,31,0.54
2013-3-6,32,31,29,29,28,26,93,88,83,30.32,29.79,25,8,25,0.00
2013-3-7,36,33,31,30,28,26,91,83,72,30.42,30.29,8,2,8,0.01
2013-3-8,46,38,30,32,28,25,85,69,54,30.48,30.36,17,4,17,0.00
2013-3-9,64,47,31,37,32,27,84,58,32,30.37,30.06,17,3,17,0.00
2013-3-10,69,59,49,39,36,32,61,43,25,30.07,29.83,19,4,19,0.00
2013-3-11,61,50,39,53,44,34,95,80,47,29.91,29.66,23,6,23,0.83
2013-3-12,49,40,35,34,30,27,85,68,49,30.09,29.91,17,6,17,0.00
2013-3-13,38,32,27,31,22,15,87,66,48,30.39,30.07,26,8,26,0.00
2013-3-14,46,34,22,30,21,16,84,63,32,30.42,30.25,14,4,14,0.00
2013-3-15,62,46,31,42,35,27,88,66,46,30.25,29.80,13,3,13,0.00
2013-3-16,72,61,46,51,47,41,83,61,45,29.96,29.68,28,9,28,0.00
2013-3-17,46,37,34,42,35,32,94,91,84,30.10,29.93,22,8,22,0.34
2013-3-18,55,45,36,53,42,34,96,91,76,29.93,29.67,24,7,24,1.09
2013-3-19,48,40,33,35,24,12,90,57,24,30.17,29.89,27,7,27,0.00
2013-3-20,48,35,24,25,18,11,74,50,34,30.17,29.98,25,8,25,0.00
2013-3-21,33,25,19,16,13,11,73,60,43,30.09,29.99,17,4,17,0.00
2013-3-22,44,32,18,22,17,14,87,59,34,30.14,30.03,5,2,8,0.00
2013-3-23,51,43,37,30,25,20,61,50,38,30.06,29.83,11,3,15,0.00
2013-3-24,44,38,34,38,32,26,95,81,49,29.84,29.36,15,7,19,0.72
2013-3-25,37,33,30,34,30,28,94,90,82,30.02,29.49,22,9,23,0.06
2013-3-26,40,35,32,33,30,26,93,83,64,30.30,30.02,16,5,16,0.02
2013-3-27,45,37,29,29,25,23,81,63,45,30.37,30.29,12,3,12,0.00
2013-3-28,50,39,26,28,26,22,87,62,38,30.40,30.31,11,2,11,0.00
2013-3-29,57,43,29,40,32,25,88,69,33,30.35,30.22,14,2,14,0.00
2013-3-30,60,46,29,44,36,28,96,74,39,30.26,29.95,22,2,22,0.00
2013-3-31,60,51,46,49,45,41,95,80,54,29.95,29.81,15,4,15,0.15
2013-4-1,51,46,38,45,32,19,89,60,33,30.15,29.84,19,6,19,0.00
2013-4-2,49,39,26,23,19,14,82,47,26,30.29,30.14,15,2,15,0.00
2013-4-3,49,39,25,22,19,16,79,47,29,30.41,30.27,25,5,25,0.00
2013-4-4,51,44,35,34,25,18,63,47,40,30.30,30.01,15,4,19,0.00
2013-4-5,65,50,31,36,31,26,89,53,28,30.12,30.00,20,3,20,0.00
2013-4-6,73,56,40,40,34,28,61,44,26,30.17,29.93,17,3,17,0.00
2013-4-7,71,63,54,50,44,36,61,51,45,30.00,29.92,25,8,25,0.00
2013-4-8,76,64,51,56,50,44,77,61,46,29.99,29.89,26,5,26,0.00
2013-4-9,81,69,58,59,55,51,79,64,43,30.06,29.93,26,6,26,0.00
2013-4-10,84,72,60,62,58,54,82,63,42,29.98,29.76,25,6,25,0.00
2013-4-11,72,65,58,62,58,54,95,77,55,29.78,29.54,19,4,19,0.62
2013-4-12,59,49,40,57,40,32,95,71,52,29.96,29.53,23,7,23,0.17
2013-4-13,63,49,36,38,35,31,86,60,35,30.07,29.95,20,5,20,0.00
2013-4-14,73,57,39,50,42,35,87,61,33,30.05,29.85,20,3,20,0.01
2013-4-15,70,63,56,56,53,49,81,70,58,29.99,29.90,15,4,15,0.00
2013-4-16,82,70,61,66,60,53,92,71,56,30.18,29.95,32,6,32,0.44
2013-4-17,72,65,60,64,61,58,95,88,73,30.15,29.95,22,4,22,0.79
2013-4-18,84,72,62,63,58,51,87,63,37,29.95,29.62,30,8,30,0.00
2013-4-19,73,50,40,62,41,32,92,73,55,30.05,29.43,33,9,33,0.83
2013-4-20,56,46,35,36,30,25,85,59,32,30.37,30.05,19,5,19,0.00
2013-4-21,58,48,36,38,31,28,72,54,37,30.48,30.33,19,6,19,0.00
2013-4-22,71,57,40,46,38,30,73,50,33,30.34,30.11,12,2,12,0.00
2013-4-23,72,60,46,53,48,41,83,64,48,30.13,29.91,18,4,18,0.00
2013-4-24,64,53,40,56,46,34,93,78,63,30.26,29.80,25,7,25,0.93
2013-4-25,62,48,31,39,35,29,93,65,38,30.37,30.26,19,3,19,0.00
2013-4-26,61,51,37,41,36,32,85,57,38,30.46,30.31,14,2,14,0.00
2013-4-27,58,55,51,53,48,39,93,77,55,30.35,30.03,18,3,18,0.27
2013-4-28,69,60,53,62,55,50,95,84,67,30.03,29.83,23,6,23,0.49
2013-4-29,65,58,52,56,53,49,93,83,65,30.01,29.92,8,2,8,0.00
2013-4-30,78,63,46,59,52,44,94,70,40,30.04,29.95,15,2,15,0.00
2013-5-1,82,69,53,60,56,50,92,65,41,30.15,30.03,16,2,16,0.00
2013-5-2,78,68,58,58,54,51,77,62,42,30.17,30.05,13,2,13,0.00
2013-5-3,76,68,59,59,54,46,80,64,48,30.05,29.89,21,4,21,0.00
2013-5-4,67,59,54,52,48,42,94,67,50,29.98,29.90,20,4,20,0.27
2013-5-5,54,52,49,52,49,47,94,92,90,29.96,29.85,25,8,25,0.97
2013-5-6,66,56,52,56,52,48,94,87,63,29.91,29.79,28,7,28,0.18
2013-5-7,71,61,53,58,55,52,95,82,57,29.96,29.88,15,2,15,0.22
2013-5-8,76,62,54,61,57,53,97,86,52,30.02,29.90,24,2,24,0.03
2013-5-9,82,68,55,62,57,51,96,71,38,30.03,29.93,15,3,15,0.02
2013-5-10,67,63,61,62,60,57,95,88,72,29.95,29.83,20,4,20,0.00
2013-5-11,63,58,54,61,54,48,94,85,67,29.98,29.84,16,5,16,0.02
2013-5-12,60,52,41,48,35,26,89,55,29,30.15,29.98,21,5,21,0.02
2013-5-13,65,53,37,41,35,30,87,54,28,30.21,30.12,22,4,22,0.01
2013-5-14,82,64,44,59,49,39,88,61,41,30.17,29.86,23,6,23,0.04
2013-5-15,88,76,67,61,56,47,71,52,29,29.97,29.85,22,8,22,0.05
2013-5-16,76,67,62,65,58,48,96,75,47,29.98,29.88,16,4,16,0.02
2013-5-17,78,69,60,66,62,59,96,82,54,30.04,29.96,13,2,13,0.04
2013-5-18,78,70,64,67,65,62,95,85,68,30.01,29.92,13,2,13,0.01
2013-5-19,86,73,63,71,67,62,97,82,54,29.99,29.87,11,2,11,0.01
2013-5-20,87,76,64,71,67,62,92,75,55,30.00,29.87,15,4,15,0.00
2013-5-21,87,73,65,70,66,62,93,80,48,29.93,29.80,32,4,32,0.00
2013-5-22,78,69,62,68,63,60,94,83,63,29.86,29.74,16,4,16,0.01
2013-5-23,74,65,56,62,59,52,95,83,56,30.03,29.81,22,5,22,0.01
2013-5-24,67,58,51,52,46,41,86,67,41,30.30,30.03,19,5,19,0.01
2013-5-25,68,58,44,52,46,38,93,68,42,30.35,30.17,11,1,11,0.01
2013-5-26,72,62,53,54,52,48,91,70,46,30.28,30.15,11,2,11,0.02
2013-5-27,86,72,59,61,55,51,79,59,30,30.17,29.96,19,4,19,0.02
2013-5-28,87,76,67,64,60,57,75,58,37,30.04,29.92,26,6,26,0.00
2013-5-29,87,76,64,67,63,58,82,65,46,30.09,29.97,16,4,16,0.00
2013-5-30,88,77,65,68,65,61,88,67,48,30.12,29.98,18,4,18,0.00
2013-5-31,84,74,68,72,66,63,91,77,58,30.04,29.92,22,5,22,0.09
2013-6-1,84,74,69,71,67,64,91,79,63,29.96,29.77,26,6,26,0.07
2013-6-2,81,71,64,66,63,59,93,77,55,29.90,29.83,14,4,14,0.01
2013-6-3,73,66,60,59,56,53,92,74,54,30.02,29.89,11,4,12,0.01
2013-6-4,76,66,54,59,56,51,89,71,53,30.08,30.00,16,4,16,0.00
2013-6-5,85,71,60,67,60,51,89,69,49,30.02,29.83,11,2,11,0.00
2013-6-6,78,71,66,70,66,63,94,85,68,29.85,29.72,12,3,12,0.03
2013-6-7,79,68,62,64,61,56,95,79,49,29.83,29.74,15,4,15,0.01
2013-6-8,82,71,63,67,61,59,90,73,51,30.00,29.83,12,2,12,0.00
2013-6-9,80,69,60,69,64,57,92,84,57,30.03,29.88,16,3,16,0.03
2013-6-10,77,70,64,68,65,63,96,85,66,29.89,29.79,16,5,16,0.07
2013-6-11,86,74,62,68,65,60,95,75,50,29.98,29.88,13,3,13,0.00
2013-6-12,94,83,70,75,71,66,87,69,50,29.93,29.76,21,6,21,0.00
2013-6-13,82,81,80,72,71,71,75,73,70,29.77,29.67,22,10,22,0.00
2013-6-14,82,76,67,62,60,57,82,58,46,30.02,29.97,11,2,11,0.00
2013-6-15,87,74,59,64,60,57,93,65,38,30.09,29.95,14,2,14,0.00
2013-6-16,84,74,67,70,65,61,93,76,59,30.03,29.93,18,3,18,0.00
2013-6-17,88,74,66,74,68,64,95,83,58,29.96,29.84,20,2,20,0.00
2013-6-18,84,72,63,68,64,61,95,80,49,29.94,29.81,28,3,28,0.00
2013-6-19,80,71,62,66,62,60,95,77,55,30.07,29.93,15,3,15,0.00
2013-6-20,86,74,61,67,62,58,90,67,42,30.17,30.07,12,2,12,0.00
2013-6-21,76,68,64,67,63,61,89,83,72,30.18,30.13,7,0,7,0.00
2013-6-24,88,76,70,72,69,64,91,80,54,30.11,30.02,25,4,25,0.00
2013-6-25,91,79,67,75,71,65,95,77,53,30.06,29.90,14,4,14,0.00
2013-6-26,88,76,67,75,69,65,96,82,61,29.95,29.72,37,5,37,0.00
2013-6-27,86,75,67,76,71,66,96,87,70,29.80,29.72,17,4,17,0.00
2013-6-28,88,78,69,71,65,58,92,67,38,29.73,29.58,15,5,19,0.00
2013-6-29,84,73,64,67,63,60,90,72,48,29.65,29.56,23,4,23,0.00
2013-6-30,83,71,62,65,62,59,95,75,46,29.78,29.62,10,2,10,0.00
2013-7-1,80,69,63,69,65,61,94,86,58,29.89,29.75,16,2,16,0.00
2013-7-2,84,71,61,70,64,60,97,81,56,30.01,29.86,10,2,10,0.00
2013-7-3,79,73,67,70,68,65,94,84,70,30.09,30.00,11,2,11,0.00
2013-7-4,72,68,65,69,66,63,95,92,86,30.12,30.04,14,2,14,0.00
2013-7-5,77,70,65,72,68,64,97,93,83,30.12,30.06,11,2,11,0.00
2013-7-6,73,69,67,69,67,66,96,93,83,30.11,30.05,13,2,13,0.00
2013-7-7,85,74,66,69,66,64,97,78,53,30.11,30.02,10,2,10,0.00
2013-7-8,89,78,66,73,68,64,95,75,47,30.13,30.02,10,2,10,0.00
2013-7-9,91,82,74,74,72,68,91,73,48,30.08,29.97,15,3,15,0.00
2013-7-10,93,78,71,79,72,68,94,83,58,29.99,29.81,23,4,23,0.00
2013-7-11,84,75,69,72,68,64,96,80,58,29.96,29.90,16,4,16,0.00
2013-7-12,79,71,62,64,59,56,84,67,46,30.05,29.96,19,5,19,0.00
2013-7-13,81,72,63,68,63,59,88,75,53,30.07,29.99,17,4,17,0.00
2013-7-14,90,78,68,75,70,65,92,78,57,30.17,30.06,19,2,19,0.00
2013-7-15,90,81,71,73,70,66,89,70,49,30.26,30.17,11,2,11,0.00
2013-7-16,93,82,70,77,71,66,92,70,43,30.29,30.20,9,1,9,0.00
2013-7-17,93,82,73,75,72,70,92,75,49,30.27,30.14,13,2,13,0.00
2013-7-18,91,81,73,79,74,71,94,81,61,30.17,30.00,12,1,12,0.00
2013-7-19,93,82,72,77,73,70,93,77,54,30.03,29.89,14,4,14,0.00
2013-7-20,92,82,74,74,72,70,91,74,51,29.92,29.82,17,4,17,0.00
2013-7-21,86,78,72,73,71,67,94,80,58,29.93,29.83,11,2,11,0.00
2013-7-22,82,75,71,73,71,69,95,89,71,29.89,29.75,15,3,15,0.00
2013-7-23,89,79,70,75,72,66,96,81,59,29.83,29.71,23,5,23,0.00
2013-7-24,77,70,64,68,62,59,94,77,59,29.93,29.77,13,4,13,0.00
2013-7-25,80,69,60,63,60,57,90,73,51,30.05,29.93,14,3,14,0.00
2013-7-26,84,72,58,65,61,56,93,71,46,30.06,29.95,11,1,11,0.00
2013-7-27,77,70,66,66,65,61,94,82,68,29.95,29.84,13,3,13,0.00
2013-7-28,76,67,56,61,53,46,88,64,43,30.06,29.89,13,3,13,0.00
2013-7-29,82,69,54,62,57,52,92,69,44,30.16,30.06,16,2,16,0.00
2013-7-30,80,70,61,66,62,58,93,80,54,30.20,30.09,9,1,9,0.00
2013-7-31,68,66,64,65,63,62,93,88,85,30.12,30.10,10,4,10,0.00
2013-8-7,88,80,73,77,73,70,96,80,66,29.93,29.83,15,4,15,0.00
2013-8-8,85,77,72,75,73,70,96,88,69,29.95,29.85,13,3,13,0.01
2013-8-9,87,76,72,75,72,70,95,88,66,29.99,29.90,15,5,15,0.00
2013-8-10,81,75,71,75,72,70,97,89,75,30.08,29.99,9,1,9,0.00
2013-8-11,88,79,72,73,71,69,95,79,57,30.07,29.99,15,2,15,0.00
2013-8-12,84,74,68,76,70,65,96,88,74,30.04,29.86,15,2,15,0.00
2013-8-13,80,72,65,73,67,57,95,83,63,30.00,29.85,17,4,17,0.00
2013-8-14,72,64,54,57,53,51,90,69,50,30.12,30.00,17,4,17,0.00
2013-8-15,74,64,53,57,54,50,88,70,48,30.14,30.03,18,4,18,0.00
2013-8-16,78,69,59,64,59,55,88,72,57,30.11,30.04,13,4,13,0.00
2013-8-17,82,71,63,67,61,58,85,73,54,30.14,30.06,12,3,12,0.00
2013-8-18,82,71,62,68,64,60,93,80,60,30.14,30.06,9,1,9,0.00
2013-8-19,86,74,65,70,67,64,96,80,53,30.11,30.02,13,1,13,0.00
2013-8-20,84,73,66,72,68,64,94,85,63,30.13,30.05,15,2,15,0.00
2013-8-21,87,74,67,74,68,64,96,84,55,30.15,30.04,27,2,27,0.00
2013-8-22,88,78,68,75,70,67,96,80,56,30.10,29.99,28,2,28,0.00
2013-8-23,85,76,69,72,68,65,94,78,55,30.08,29.99,15,2,15,0.00
2013-8-24,85,75,64,69,63,52,93,70,34,30.22,30.08,14,2,14,0.00
2013-8-25,88,74,60,69,63,57,92,70,45,30.30,30.19,10,1,10,0.00
2013-8-26,89,77,66,72,68,63,93,75,51,30.24,30.07,16,3,16,0.00
2013-8-27,90,79,71,75,72,68,92,80,61,30.09,29.95,14,5,14,0.00
2013-8-28,92,81,72,74,71,68,94,75,49,29.99,29.88,11,5,14,0.00
2013-8-29,88,79,71,74,70,68,91,76,58,29.98,29.90,14,3,14,0.00
2013-8-30,91,79,66,74,70,65,95,76,49,29.95,29.82,9,1,9,0.00
2013-8-31,76,75,74,72,72,71,91,89,86,29.86,29.80,12,2,12,0.00
2013-9-3,79,71,63,65,61,57,90,71,53,30.03,29.90,16,4,16,0.00
2013-9-4,81,68,55,63,59,53,95,76,49,30.13,30.03,10,1,10,0.00
2013-9-5,83,71,58,66,62,57,94,75,50,30.18,30.10,12,1,12,0.00
2013-9-6,81,71,62,66,61,57,94,74,45,30.18,30.07,12,2,12,0.00
2013-9-7,87,73,59,69,64,57,93,74,51,30.07,29.94,10,2,10,0.00
2013-9-8,89,77,67,72,68,65,95,77,48,29.97,29.90,8,1,8,0.00
2013-9-9,91,79,69,74,70,67,94,75,50,30.02,29.94,12,2,12,0.00
2013-9-10,92,80,71,75,72,68,92,76,55,30.12,30.01,12,3,12,0.00
2013-9-11,90,79,71,76,71,68,94,79,56,30.15,30.03,16,3,16,0.00
2013-9-12,84,74,67,73,68,65,95,83,66,30.03,29.86,19,4,19,0.00
2013-9-13,70,63,52,65,52,45,90,69,45,30.05,29.89,20,6,20,0.00
2013-9-14,70,58,48,51,47,44,91,70,42,30.14,30.05,16,3,16,0.00
2013-9-15,80,64,47,62,55,45,92,73,51,30.13,30.03,15,3,15,0.00
2013-9-16,72,66,62,63,61,57,92,82,71,30.22,30.05,14,3,14,0.00
2013-9-17,75,64,54,58,55,52,92,74,48,30.26,30.12,18,4,18,0.00
2013-9-18,75,68,60,67,63,55,92,85,76,30.15,30.06,15,2,15,0.00
2013-9-19,80,71,63,71,67,62,95,87,72,30.13,29.98,12,2,12,0.00
2013-9-20,87,76,67,69,67,64,92,77,55,29.99,29.78,18,4,18,0.00
2013-9-21,72,65,57,69,59,50,95,81,53,29.85,29.68,16,4,16,0.04
2013-9-22,69,59,49,53,50,47,93,75,53,29.98,29.84,13,3,13,0.02
2013-9-23,71,59,49,54,50,46,92,73,49,30.07,29.97,18,3,18,0.00
2013-9-24,79,64,51,64,56,49,90,76,51,30.05,29.86,9,2,9,0.00
2013-9-25,77,68,62,65,61,58,91,79,58,29.88,29.81,17,3,17,0.00
2013-9-26,78,63,52,62,56,50,94,78,49,30.04,29.88,11,1,11,0.00
2013-9-27,80,65,53,63,56,50,93,74,44,30.15,30.04,11,1,11,0.00
2013-9-28,82,66,52,63,57,50,93,75,44,30.17,30.05,11,2,11,0.00
2013-9-29,75,64,58,61,59,55,93,83,59,30.07,29.99,17,3,17,0.00
2013-9-30,78,68,61,62,60,59,93,78,54,30.03,29.94,16,3,16,0.00
2013-10-1,81,68,58,65,61,56,93,79,55,30.09,30.00,14,2,14,0.00
2013-10-2,82,71,60,71,66,59,95,85,69,30.11,30.01,10,1,10,0.00
2013-10-3,82,72,68,70,67,65,95,84,62,30.08,29.99,13,2,13,0.00
2013-10-4,85,73,64,69,66,62,95,79,54,30.09,30.00,12,2,12,0.00
2013-10-5,85,72,68,70,67,65,95,86,61,30.04,29.91,19,2,19,0.00
2013-10-6,72,65,54,69,63,52,97,94,88,29.91,29.74,21,3,21,0.00
2013-10-7,63,55,47,52,47,44,94,77,51,30.15,29.85,15,4,15,0.00
2013-10-8,66,54,42,50,46,40,95,75,50,30.25,30.14,23,4,23,0.00
2013-10-9,74,59,45,56,49,42,92,73,47,30.21,30.13,9,1,9,0.00
2013-10-10,73,59,45,53,48,43,93,71,37,30.18,30.06,10,1,10,0.00
2013-10-11,77,61,48,57,52,45,94,73,44,30.10,30.00,7,1,7,0.00
2013-10-12,80,64,50,59,54,48,94,75,42,30.11,30.01,11,1,11,0.00
2013-10-13,76,63,52,63,57,50,94,82,62,30.25,30.10,14,2,14,0.00
2013-10-14,71,61,51,59,53,46,92,78,62,30.29,30.13,13,3,13,0.00
2013-10-15,74,66,58,62,60,55,95,83,63,30.16,29.93,13,3,13,0.00
2013-10-16,65,62,58,62,60,55,94,92,89,29.97,29.91,12,3,12,0.00
2013-10-17,58,54,46,56,49,44,95,86,73,30.01,29.87,14,3,14,0.00
2013-10-18,66,52,39,50,44,38,96,78,47,30.08,29.96,14,2,14,0.00
2013-10-19,52,47,40,50,44,38,94,89,79,30.06,29.85,23,3,23,0.00
2013-10-20,62,48,36,45,40,35,95,76,45,30.11,30.03,15,3,15,0.00
2013-10-21,68,54,39,45,42,36,90,66,36,30.07,29.93,17,4,17,0.00
2013-10-22,56,49,38,48,37,30,90,67,41,30.07,29.84,19,2,19,0.00
2013-10-23,48,44,39,44,37,32,88,78,61,30.09,29.75,22,5,22,0.00
2013-10-24,48,40,36,37,33,29,85,77,56,30.33,30.08,23,4,23,0.00
2013-10-25,49,38,29,31,28,26,89,69,42,30.50,30.33,23,2,23,0.07
2013-10-26,35,30,29,29,26,25,86,83,80,30.35,30.24,7,1,7,0.01
2013-10-28,61,52,44,52,46,41,94,80,66,30.28,30.15,8,1,8,0.00
2013-10-29,60,50,40,56,48,38,97,94,85,30.34,30.19,6,0,6,0.02
2013-10-30,68,62,55,64,60,54,97,93,85,30.19,30.03,13,2,13,0.16
2013-10-31,71,65,62,64,59,55,93,81,69,30.04,29.42,39,9,39,0.06
2013-11-1,66,59,52,63,50,45,94,73,51,29.77,29.47,31,6,31,0.01
2013-11-2,59,50,44,45,42,37,88,74,51,30.12,29.76,19,4,19,0.01
2013-11-3,54,45,35,42,37,33,92,75,54,30.36,30.11,11,2,11,0.00
2013-11-4,64,51,40,45,40,35,82,67,44,30.40,30.30,19,3,19,0.02
2013-11-5,65,56,48,44,41,39,79,60,40,30.42,30.23,12,2,12,0.02
2013-11-6,72,60,49,60,52,40,94,77,61,30.23,29.99,27,6,27,0.03
2013-11-7,51,44,37,48,35,27,93,71,44,30.29,30.02,20,5,20,0.01
2013-11-8,53,41,30,34,30,27,90,67,38,30.42,30.28,14,2,14,0.05
2013-11-9,62,47,30,35,31,26,87,57,31,30.28,30.12,25,6,25,0.03
2013-11-10,54,46,32,40,32,27,83,59,36,30.36,30.18,16,4,16,0.04
2013-11-11,64,47,30,43,29,20,89,55,20,30.33,30.12,22,3,22,0.53
2013-11-12,49,33,26,44,24,16,94,71,45,30.66,30.18,24,8,24,0.01
2013-11-13,42,30,20,26,21,16,89,71,43,30.71,30.46,10,1,10,0.00
2013-11-14,54,38,25,26,22,19,83,56,26,30.46,30.22,19,4,19,0.00
2013-11-15,56,44,31,45,34,21,91,67,44,30.23,30.12,15,2,19,0.04
2013-11-16,62,54,44,56,51,43,96,88,79,30.16,29.93,17,4,17,0.00
2013-11-17,66,62,54,64,57,43,95,85,57,29.94,29.61,23,7,23,1.03
2013-11-18,56,49,40,45,37,28,86,65,40,30.21,29.84,21,5,21,0.00
2013-11-19,43,37,30,32,28,26,83,72,60,30.34,30.21,17,4,17,0.00
2013-11-20,56,41,29,36,30,25,86,67,44,30.33,30.22,15,3,15,0.00
2013-11-21,62,51,39,51,42,31,86,72,65,30.33,30.19,17,2,17,0.00
2013-11-22,57,54,47,56,52,44,95,93,86,30.28,30.18,22,4,22,0.27
2013-11-23,38,29,23,22,16,12,67,60,49,30.58,30.41,23,10,23,0.00
2013-11-24,29,24,18,15,13,10,76,63,48,30.73,30.55,18,3,18,0.00
2013-11-25,43,33,22,31,20,14,93,61,37,30.56,30.22,17,4,17,0.00
2013-11-26,35,34,32,34,32,29,95,94,91,30.24,29.93,10,3,12,0.13
2013-11-27,32,28,21,30,24,15,91,83,74,30.36,29.95,12,6,17,0.00
2013-11-28,38,26,16,24,18,12,88,72,48,30.51,30.35,9,3,16,0.00
2013-11-29,44,31,19,28,23,16,89,74,53,30.66,30.50,4,1,7,0.00
2013-11-30,54,39,27,34,28,23,86,66,43,30.53,30.23,11,3,14,0.00
2013-12-1,51,44,34,37,32,26,84,65,54,30.24,29.98,8,4,12,0.00
2013-12-2,56,45,34,43,38,31,91,78,59,29.98,29.77,6,1,7,0.00
2013-12-3,57,50,39,50,46,37,96,87,77,29.87,29.78,13,2,13,0.00
2013-12-4,68,58,48,60,54,46,95,86,72,29.86,29.73,15,4,18,0.00
2013-12-5,67,52,34,62,49,33,94,89,79,30.14,29.81,21,7,21,0.73
2013-12-6,34,32,29,33,30,26,94,93,91,30.39,30.08,18,4,18,0.42
2013-12-7,29,27,24,26,24,20,93,89,84,30.60,30.38,0,0,0,0.00
2013-12-8,34,29,24,33,28,21,96,93,87,30.51,30.07,8,0,8,0.00
2013-12-9,34,31,27,33,28,23,96,90,83,30.27,30.07,12,2,12,0.08
2013-12-10,32,26,23,25,22,19,91,83,71,30.42,30.16,19,2,19,0.01
2013-12-11,41,28,18,30,22,16,92,79,55,30.55,30.36,21,5,21,0.06
2013-12-12,31,22,13,17,12,9,85,67,43,30.62,30.41,10,3,10,0.00
2013-12-13,45,33,20,33,20,14,91,63,36,30.42,30.14,13,2,13,0.09
2013-12-14,45,39,35,44,36,30,96,92,77,30.17,29.73,20,5,20,0.55
2013-12-15,35,30,28,32,27,24,93,86,82,30.19,29.93,20,7,20,0.00
2013-12-16,45,36,30,36,31,26,91,83,69,30.18,30.05,14,4,14,0.00
2013-12-17,43,37,29,37,32,25,89,83,77,30.25,30.02,18,5,18,0.00
2013-12-18,42,33,25,26,22,17,90,68,38,30.35,30.14,13,4,13,0.00
2013-12-19,60,48,37,42,32,22,59,52,44,30.18,30.02,22,7,22,0.00
2013-12-20,62,57,51,57,48,34,92,74,47,30.02,29.87,26,8,26,0.10
2013-12-21,72,64,57,64,60,56,95,87,76,29.88,29.52,41,9,41,1.11
2013-12-22,60,55,40,58,51,38,95,86,71,30.07,29.60,21,7,21,0.43
2013-12-23,40,34,26,38,28,21,92,79,64,30.43,30.07,17,6,17,0.01
2013-12-24,27,22,17,22,15,10,87,74,59,30.59,30.42,21,4,21,0.00
2013-12-25,41,29,17,23,17,13,83,64,35,30.52,30.27,14,3,15,0.00
2013-12-26,43,36,28,28,25,22,83,67,49,30.43,30.25,12,3,17,0.00
2013-12-27,51,36,22,30,25,19,89,67,42,30.48,30.36,10,3,12,0.00
2013-12-28,51,40,30,36,28,23,87,61,42,30.38,30.06,9,2,11,0.05
2013-12-29,47,40,32,42,37,29,95,90,79,30.09,29.87,15,5,24,0.46
2013-12-30,32,29,25,29,24,20,89,83,72,30.28,30.07,13,4,13,0.00
2013-12-31,38,28,22,23,20,17,84,73,52,30.46,30.25,18,4,18,0.00
2014-1-1,47,36,26,31,26,21,85,69,42,30.34,30.02,14,2,14,0.00
2014-1-2,38,29,14,35,24,9,95,85,66,30.32,29.83,21,6,26,0.16